Location: Makanda
(37.6176°N, 89.2090°W)
Time: 15:37:27
(UTC+00:00)

Meteor 1-31 Rocket - Pass Details

Date: 23 September 2019
Orbit: 521 x 547 km, 97.6° (Epoch: 13 October)

Event Time Altitude Azimuth Distance (km) Brightness Sun altitude
Rises 10:47:17 0° 6° (N) 2,703 6.6 -12.3°
Reaches altitude 10° 10:49:27 10° 1° (N) 1,803 5.6 -11.8°
Maximum altitude 10:53:13 52° 286° (WNW) 674 2.9 -11.1°
Drops below altitude 10° 10:56:57 10° 209° (SSW) 1,774 5.1 -10.4°
Sets 10:59:04 0° 204° (SSW) 2,655 6.0 -10.0°
